Regional Weather Roundup
Issued by NWS

Home | Current Version | Previous Version | Text Only | Print | Product List | Glossary Off
Versions: 1 2 3 4 5 6 7 8 9 10 11 12 13 14 15 16 17 18 19 20 21 22 23 24 25 26 27 28 29 30 31 32 33 34 35 36 37 38 39 40 41 42 43 44 45 46 47 48 49 50

000
ASUS43 KDMX 210607
RWRIA

WEATHER ROUNDUP FOR IOWA
NATIONAL WEATHER SERVICE DES MOINES IA
100 AM CDT TUE APR 21 2015

NOTE: "FAIR" INDICATES FEW OR NO CLOUDS BELOW 12,000 FEET WITH NO
SIGNIFICANT WEATHER AND/OR OBSTRUCTIONS TO VISIBILITY.

* - THESE STATIONS ARE NOT NWS STATIONS...THUS NOT UNDER NWS
QUALITY CONTROL.  THEY ALSO DO NOT REPORT WEATHER SUCH
AS PRECIPITATION OR FOG.

IAZ001>003-012>014-020>022-031>034-043>046-210700-
   NORTHWEST IOWA

CITY           SKY/WX    TMP DP  RH WIND       PRES   REMARKS
CARROLL *      MOCLDY    36  23  60 W10       29.74R WCI  28
CHEROKEE *       N/A     34  23  64 CALM      29.75R
DENISON *      PTCLDY    36  21  55 CALM      29.74S
LE MARS *      CLEAR     36  18  48 CALM      29.77R
ORANGE CITY *  CLEAR     34  18  51 CALM      29.74S
SHELDON *      CLEAR     34  27  75 W8        29.72S WCI  27
SIOUX CITY       N/A     39  15  37 W10       29.77R WCI  32
6HR MIN TEMP:  39; 6HR MAX TEMP:  55;

SPENCER          N/A     36  28  73 W14       29.71R WCI  27
6HR MIN TEMP:  32; 6HR MAX TEMP:  51;

STORM LAKE *   CLEAR     34  23  64 NW10      29.74R WCI  26
$$

IAZ055>058-069>071-079>083-090>094-210700-
   SOUTHWEST IOWA

CITY           SKY/WX    TMP DP  RH WIND       PRES   REMARKS
ATLANTIC *     PTCLDY    39  23  52 W9        29.77S WCI  33
AUDUBON *      CLEAR     34  25  69 W6        29.76R WCI  29
CLARINDA *     PTCLDY    41  28  60 W8        29.82S
COUNCIL BLFS * PTCLDY    45  19  36 W10       29.80R
CRESTON *      CLEAR     36  27  69 W8        29.77S WCI  29
HARLAN  *      CLEAR     39  21  48 W15       29.80S WCI  31
LAMONI           N/A     43  27  53 W12       29.77S
6HR MIN TEMP:  42; 6HR MAX TEMP:  54;

RED OAK *      CLEAR     41  27  56 W8        29.80R
SHENANDOAH *   CLEAR     36  30  80 SW3       29.82S
$$

IAZ047>049-059>061-072>074-084-210700-
   CENTRAL IOWA

CITY           SKY/WX    TMP DP  RH WIND       PRES   REMARKS
AMES             N/A     37  29  72 W7        29.72R WCI  32
6HR MIN TEMP:  35; 6HR MAX TEMP:  52;

ANKENY *       CLEAR     37  27  65 W7        29.73R WCI  32
CHARITON *     PTCLDY    43  23  45 W9        29.74F
DES MOINES       N/A     39  23  52 W6        29.73S WCI  35
6HR MIN TEMP:  38; 6HR MAX TEMP:  55;

GRINNELL*        N/A     37  32  81 W5        29.71S WCI  34
KNOXVILLE *    CLEAR     39  23  52 SW10      29.71F WCI  32
MARSHALLTOWN     N/A     35  31  85 SW10      29.69S WCI  27
6HR MIN TEMP:  34; 6HR MAX TEMP:  49;

PELLA *          N/A     41  29  62 W6        29.73S
PERRY *          N/A     36  27  69 W9        29.73R WCI  29
$$

IAZ004>006-015-016-023>025-035-036-210700-
   NORTH CENTRAL IOWA

CITY           SKY/WX    TMP DP  RH WIND       PRES   REMARKS
ALGONA *       CLEAR     36  28  75 W10       29.69R WCI  28
CLARION *      CLEAR     36  30  80 W14       29.68S WCI  27
ESTHERVILLE      N/A     35  27  72 W15       29.68R WCI  25
6HR MIN TEMP:  35; 6HR MAX TEMP:  45;

FORT DODGE *     N/A     37  28  70 W6        29.72R WCI  33
MASON CITY       N/A     35  29  78 W13       29.65S WCI  26
6HR MIN TEMP:  35; 6HR MAX TEMP:  42;

FOREST CITY *  CLEAR     34  30  86 W14       29.64S WCI  24
IOWA FALLS *     N/A     37  30  75 W14       29.69S WCI  29
$$

IAZ007>011-017>019-026>030-037>042-050>054-066-210700-
   NORTHEAST IOWA

CITY           SKY/WX    TMP DP  RH WIND       PRES   REMARKS
CEDAR RAPIDS     N/A     37  32  82 W12       29.67S WCI  29
6HR MIN TEMP:  36; 6HR MAX TEMP:  47;

CHARLES CITY * CLOUDY    39  32  75 W14       29.63R WCI  31
CLINTON *        N/A     37  30  75 W13       29.68S WCI  29
DECORAH *      CLOUDY    37  32  81 W9G17     29.57S WCI  31
DUBUQUE          N/A     37  30  75 W14       29.61S WCI  28
6HR MIN TEMP:  37; 6HR MAX TEMP:  44;

MONTICELLO *   MOCLDY    39  32  75 W13       29.64R WCI  32
OELWEIN *      PTCLDY    39  30  70 W18       29.63S WCI  30
WATERLOO         N/A     39  29  67 W12       29.65R WCI  32
6HR MIN TEMP:  38; 6HR MAX TEMP:  45;

$$

IAZ064-065-067-068-078-210700-
   EAST CENTRAL IOWA

CITY           SKY/WX    TMP DP  RH WIND       PRES   REMARKS
DAVENPORT        N/A     38  31  76 W13       29.68F WCI  30
6HR MIN TEMP:  35; 6HR MAX TEMP:  43; 6HR PCP:  0.01;

IOWA CITY        N/A     36  32  85 SW3       29.71R
6HR MIN TEMP:  35; 6HR MAX TEMP:  49;

MT. PLEASANT *   N/A     39  26  59 NW9       29.73R WCI  33
MUSCATINE *    CLEAR     39  32  75 W5        29.71F
QUAD CITIES    MOCLDY    41  32  70 W10       29.68F
6HR MIN TEMP:  35; 6HR MAX TEMP:  49; 6HR PCP: TRACE;

$$

IAZ062-063-075>077-085>089-095>099-210700-
   SOUTHEAST IOWA

CITY           SKY/WX    TMP DP  RH WIND       PRES   REMARKS
BURLINGTON       N/A     43  28  55 W12       29.71S
6HR MIN TEMP:  42; 6HR MAX TEMP:  52;

FAIRFIELD *    CLEAR     39  25  56 W8        29.72S WCI  34
FORT MADISON * CLEAR     45  27  49 W8        29.73S
KEOKUK *       CLEAR     41  28  60 W9        29.74R
OSKALOOSA *      N/A     34  26  71 W8        29.72F WCI  27
CENTERVILLE *  CLEAR     39  27  60 W10       29.77R WCI  32
OTTUMWA          N/A     38  24  57 W7        29.72S WCI  33
6HR MIN TEMP:  38; 6HR MAX TEMP:  52;

WASHINGTON *   CLEAR     34  32  93 SW7       29.71F WCI  28
$$

ABBREVIATIONS USED IN REMARKS
   TC - TEMPERATURES IN CELSIUS
  WCI - WIND CHILL INDEX
   HX - HEAT INDEX
  VSB - VISIBILITY
$$




USA.gov is the U.S. government's official web portal to all federal, state and local government web resources and services.